Weather History for Beauvais, France

Change the Weather History Date:

Tuesday, January 22, 2013

  Actual Average Record
Temperature  
Mean Temperature 28 °F -  
Max Temperature 32 °F 43 °F 53 °F (1997)
Min Temperature 24 °F 34 °F 24 °F (2013)
Degree Days  
Heating Degree Days 37    
Moisture  
Dew Point 29 °F    
Average Humidity 96    
Maximum Humidity 100    
Minimum Humidity 93    
Precipitation  
Precipitation 0.00 in - - ()
Sea Level Pressure  
Sea Level Pressure 29.58 in    
Wind  
Wind Speed 7 mph ()    
Max Wind Speed 16 mph    
Max Gust Speed -    
Visibility 2.6 miles    
Events Fog , Rain , Snow    
Averages and records for this station are not official NWS values.
T = Trace of Precipitation, MM = Missing Value Source: Averaged Metar Reports

Daily Weather History Graph

Daily Weather History Graph

Search for Another Location

Airport:

Trip Planner

Search our weather history database for the weather conditions in past years. The results will help you decide how hot, cold, wet, or windy it might be!

Date:

Astronomy

Jan. 22, 2013 Rise Set
Actual Time 8:35 AM CET 5:31 PM CET
Civil Twilight 8:00 AM CET 6:06 PM CET
Nautical Twilight 7:20 AM CET 6:46 PM CET
Astronomical Twilight 6:42 AM CET 7:23 PM CET
Moon 1:38 PM CET (1/22) 4:47 AM CET (1/22)
Length of Visible Light 10h 06m
Length of Day
8h 55m
Waxing Gibbous, 80% of the Moon is Illuminated
Jan 22
Waxing Gibbous
Jan 27
Full
Feb 3
Last Quarter
Feb 10
New
Feb 17
First Quarter

Hourly Weather History & Observations

Time (CET) Temp. Windchill Dew Point Humidity Pressure Visibility Wind Dir Wind Speed Gust Speed Precip Events Conditions
12:00 AM 30.2 °F - 30.2 °F 100% 29.56 in 0.8 mi West 2.3 mph - N/A Fog Light Freezing Fog
12:30 AM 28.4 °F 24.6 °F 26.6 °F 93% 29.56 in 0.2 mi ENE 3.5 mph - N/A Fog Light Freezing Fog
1:00 AM 26.6 °F 21.2 °F 26.6 °F 100% 29.56 in 0.1 mi ESE 4.6 mph - N/A Fog Light Freezing Fog
1:30 AM 26.6 °F - 24.8 °F 93% 29.56 in 0.1 mi Variable 2.3 mph - N/A Fog Light Freezing Fog
2:00 AM 26.6 °F - 24.8 °F 93% 29.56 in 0.0 mi SSE 1.2 mph - N/A Fog Light Freezing Fog
2:30 AM 24.8 °F - 23.0 °F 93% 29.56 in 0.0 mi SSE 1.2 mph - N/A Fog Light Freezing Fog
3:00 AM 28.4 °F 24.6 °F 28.4 °F 100% 29.56 in 0.2 mi Variable 3.5 mph - N/A Fog Light Freezing Fog
3:30 AM 30.2 °F 24.3 °F 30.2 °F 100% 29.56 in 0.2 mi SSE 5.8 mph - N/A Fog Light Freezing Fog
4:00 AM 30.2 °F 25.4 °F 30.2 °F 100% 29.56 in 0.1 mi SE 4.6 mph - N/A Fog Light Freezing Fog
4:30 AM 30.2 °F 24.3 °F 30.2 °F 100% 29.56 in 0.1 mi SSE 5.8 mph - N/A Fog Light Freezing Fog
5:00 AM 30.2 °F 23.4 °F 30.2 °F 100% 29.59 in 0.2 mi SSE 6.9 mph - N/A Fog Light Freezing Fog
5:30 AM 30.2 °F 24.3 °F 30.2 °F 100% 29.59 in - South 5.8 mph - N/A Fog Light Freezing Fog
6:00 AM 30.2 °F 25.4 °F 30.2 °F 100% 29.59 in 0.3 mi SSE 4.6 mph - N/A Fog Light Freezing Fog
6:30 AM 30.2 °F 23.4 °F 30.2 °F 100% 29.59 in 0.9 mi SSE 6.9 mph - N/A Fog Light Freezing Fog
7:00 AM 30.2 °F 24.3 °F 30.2 °F 100% 29.59 in 1.4 mi SSE 5.8 mph - N/A   Overcast
7:30 AM 30.2 °F 23.4 °F 30.2 °F 100% 29.59 in - SE 6.9 mph - N/A   Overcast
8:00 AM 30.2 °F 20.8 °F 30.2 °F 100% 29.59 in 3.1 mi SSE 11.5 mph - N/A   Overcast
8:30 AM 30.2 °F 20.8 °F 30.2 °F 100% 29.59 in - SSE 11.5 mph - N/A   Overcast
9:00 AM 30.2 °F 20.2 °F 30.2 °F 100% 29.59 in - SE 12.7 mph - N/A   Overcast
9:30 AM 30.2 °F 20.2 °F 30.2 °F 100% 29.59 in - SE 12.7 mph - N/A   Overcast
10:00 AM 30.2 °F 19.8 °F 30.2 °F 100% 29.59 in - SE 13.8 mph - N/A   Overcast
10:30 AM 30.2 °F 20.8 °F 30.2 °F 100% 29.59 in 3.1 mi SE 11.5 mph - N/A   Overcast
11:00 AM 30.2 °F 20.8 °F 28.4 °F 93% 29.59 in 3.7 mi ESE 11.5 mph - N/A   Overcast
11:30 AM 30.2 °F 20.8 °F 28.4 °F 93% 29.59 in 3.7 mi ESE 11.5 mph - N/A   Overcast
12:00 PM 30.2 °F 20.8 °F 28.4 °F 93% 29.59 in 5.0 mi ESE 11.5 mph - N/A   Overcast
12:30 PM 30.2 °F 20.2 °F 28.4 °F 93% 29.59 in - East 12.7 mph - N/A   Overcast
1:00 PM 30.2 °F 20.2 °F 28.4 °F 93% 29.59 in - East 12.7 mph - N/A   Overcast
1:30 PM 30.2 °F 20.8 °F 30.2 °F 100% 29.59 in 3.1 mi East 11.5 mph - N/A   Overcast
2:00 PM 30.2 °F 20.2 °F 30.2 °F 100% 29.56 in 3.1 mi East 12.7 mph - N/A   Overcast
2:30 PM 30.2 °F 20.8 °F 30.2 °F 100% 29.56 in 3.1 mi East 11.5 mph - N/A Snow Light Snow
3:00 PM 32.0 °F 23.6 °F 30.2 °F 93% 29.56 in - East 10.4 mph - N/A   Overcast
3:30 PM 32.0 °F 22.1 °F 30.2 °F 93% 29.53 in 3.1 mi East 13.8 mph - N/A Snow Light Snow
4:00 PM 32.0 °F 21.6 °F 30.2 °F 93% 29.53 in 4.3 mi East 15.0 mph - N/A   Overcast
4:30 PM 32.0 °F 22.1 °F 30.2 °F 93% 29.56 in 5.0 mi ESE 13.8 mph - N/A   Overcast
5:00 PM 32.0 °F 21.2 °F 30.2 °F 93% 29.56 in 4.3 mi East 16.1 mph - N/A   Overcast
5:30 PM 32.0 °F 23.6 °F 30.2 °F 93% 29.56 in 4.3 mi ESE 10.4 mph - N/A   Overcast
6:00 PM 32.0 °F 23.0 °F 30.2 °F 93% 29.56 in 5.0 mi East 11.5 mph - N/A   Overcast
6:30 PM 32.0 °F 23.0 °F 32.0 °F 100% 29.59 in 5.0 mi East 11.5 mph - N/A   Overcast
7:00 PM 32.0 °F 24.2 °F 30.2 °F 93% 29.59 in 5.0 mi East 9.2 mph - N/A   Overcast
7:30 PM 32.0 °F 22.5 °F 30.2 °F 93% 29.59 in 5.0 mi East 12.7 mph - N/A   Overcast
8:00 PM 32.0 °F 22.5 °F 30.2 °F 93% 29.59 in 5.0 mi East 12.7 mph - N/A   Overcast
8:30 PM 32.0 °F 23.6 °F 30.2 °F 93% 29.59 in 4.3 mi East 10.4 mph - N/A Rain Light Rain
9:00 PM 32.0 °F 24.2 °F 30.2 °F 93% 29.59 in 3.1 mi East 9.2 mph - N/A Rain Rain
9:30 PM 32.0 °F 24.2 °F 30.2 °F 93% 29.62 in 3.1 mi East 9.2 mph - N/A   Overcast
10:00 PM 32.0 °F 24.2 °F 30.2 °F 93% 29.62 in 3.1 mi East 9.2 mph - N/A   Overcast
10:30 PM 32.0 °F 24.2 °F 30.2 °F 93% 29.62 in 3.1 mi East 9.2 mph - N/A   Overcast
11:00 PM 32.0 °F 24.2 °F 30.2 °F 93% 29.62 in 3.7 mi East 9.2 mph - N/A   Overcast
11:30 PM 32.0 °F 24.8 °F 30.2 °F 93% 29.62 in 3.7 mi East 8.1 mph - N/A   Drizzle